#timestamp,LO_Frequency,Hit,StdDev 
1505368815.5,286047001.0,N,0.8
1505368835.3,286047001.1,N,0.9
1505368855.2,286047000.7,N,0.9
1505368875.9,286047000.9,N,0.9
1505368895.7,286047000.9,N,1.0
1505368915.6,286047001.0,N,1.0
1505368935.4,286047000.6,N,1.0
1505368955.3,286047000.7,N,1.0
1505368975.1,286047000.2,N,1.0
1505368976.0,286047000.2,N,1.0
1505368995.8,286047000.5,N,1.0
1505369015.7,286047002.8,N,1.1
1505369035.5,286046999.7,N,1.1
1505369055.3,286047000.1,N,1.1
1505369075.2,286047002.7,N,1.2
1505369095.0,286047002.7,N,1.2
1505369095.9,286047002.7,N,1.3
1505369115.8,286047000.1,N,1.3
1505369135.6,286047000.5,N,1.3
1505369155.4,286047002.7,N,1.3
1505369175.3,286047002.7,N,1.3
1505369195.1,286047002.6,N,1.3
1505369215.9,286047002.4,N,1.3
1505369235.7,286047000.1,N,1.3
1505369255.5,286046999.7,N,1.3
1505369275.4,286047002.4,N,1.3
1505369295.2,286047002.3,N,1.2
1505369315.0,286047002.6,N,1.1
1505369315.9,286047002.6,N,1.1
1505369335.8,286047001.9,N,1.1
1505369355.6,286047004.1,Y,0.0
1505369375.5,286047001.9,P,0.3
1505369395.3,286047002.1,P,0.3
1505369415.1,286047001.8,P,0.3
1505369435.9,286047001.6,Y,0.0
1505369455.7,286047000.5,P,0.6
1505369475.6,286047000.7,N,0.6
1505369495.4,286046999.2,N,0.9
1505369515.2,286046999.4,N,0.9
1505369535.1,286046998.3,N,1.1
1505369536.0,286046998.3,N,1.2
1505369555.8,286046999.0,N,1.2
1505369575.7,286046998.7,N,1.1
1505369595.5,286047001.2,N,1.2
1505369615.3,286047001.1,N,1.2
1505369635.2,286047000.4,N,1.2
1505369655.0,286047000.7,N,1.1
1505369655.9,286047000.7,N,1.1
1505369675.8,286047000.6,N,1.1
1505369695.6,286047001.2,N,1.1
1505369715.4,286047000.5,N,1.1
1505369735.3,286047000.6,N,1.0
1505369755.1,286046998.1,N,1.1
1505369775.8,286046998.5,N,1.1
1505369795.7,286047000.6,N,1.1
1505369815.5,286047000.1,N,1.1
1505369835.4,286047000.7,N,1.1
1505369855.2,286047000.2,N,1.0
1505369875.0,286046999.7,N,1.0
1505369875.9,286046999.7,N,1.0
1505369895.8,286047002.5,N,1.1
1505369915.6,286047002.2,N,1.1
1505369935.5,286047002.8,N,1.2
1505369955.3,286046999.7,N,1.2
1505369975.1,286047002.4,N,1.2
1505369995.9,286047002.1,N,1.3
1505370015.7,286047002.2,N,1.3
1505370035.5,286047001.8,N,1.3
1505370055.4,286047001.4,N,1.3
1505370075.2,286047001.8,N,1.3
1505370095.1,286047004.1,Y,0.0
1505370096.0,286047004.1,P,1.7
1505370115.8,286047004.3,N,1.7
1505370135.6,286047002.2,N,1.5
1505370155.5,286047001.4,N,1.5
1505370175.3,286047001.4,N,1.4
1505370195.2,286047001.8,N,1.3
1505370215.9,286047002.0,N,1.2
1505370235.7,286047001.4,N,1.2
1505370255.6,286047001.9,N,1.1
1505370275.4,286047002.0,N,1.1
1505370295.2,286047004.4,Y,0.0
1505370315.1,286046999.8,P,1.2
1505370316.0,286046999.8,N,1.1
1505370335.8,286047000.4,N,0.9
1505370355.7,286047002.8,N,1.2
1505370375.5,286047000.0,N,1.2
1505370395.3,286047002.5,N,1.2
1505370415.2,286047002.3,N,1.2
1505370435.0,286047002.5,N,1.2
1505370435.9,286047002.5,N,1.2
1505370455.8,286047002.8,N,1.2
1505370475.6,286046999.9,N,1.3
1505370495.4,286046998.6,N,1.4
1505370515.3,286047000.9,N,1.4
1505370535.1,286047002.6,N,1.4
1505370555.9,286047002.7,N,1.4
1505370575.7,286047002.6,N,1.4
1505370595.5,286047002.0,N,1.3
1505370615.4,286047002.1,N,1.3
1505370635.2,286047002.1,N,1.3
1505370655.0,286047002.1,N,1.3
1505370655.9,286047002.1,N,1.2
1505370675.8,286047002.0,N,1.2
1505370695.6,286047004.3,Y,0.0
1505370715.5,286047000.6,P,0.5
1505370735.3,286047000.3,N,0.6
1505370755.1,286047000.3,N,0.5
1505370775.9,286047000.4,N,0.5
1505370795.7,286047001.0,N,0.5
1505370815.6,286047000.0,N,0.5
1505370835.4,286047000.0,N,0.5
1505370855.2,286047000.6,N,0.5
1505370875.1,286047000.1,N,0.5
1505370876.0,286047000.1,N,0.5
1505370895.8,286047000.2,N,0.5
1505370915.6,286047000.1,N,0.4
1505370935.5,286046999.8,N,0.5
1505370955.3,286047002.1,Y,0.0
1505370975.2,286047002.4,P,1.0
1505370995.0,286047000.1,N,1.0
1505370995.9,286047000.1,N,1.0
1505371015.7,286047000.9,N,0.9
1505371035.6,286047000.5,N,0.8
1505371055.4,286047002.3,N,0.9
1505371075.3,286047002.8,Y,0.0
1505371095.1,286047000.6,P,0.2
1505371115.8,286047000.7,P,0.1
1505371135.7,286047000.5,P,0.2
1505371155.5,286047000.0,N,0.3
1505371175.4,286046999.9,N,0.4
1505371195.2,286047000.3,N,0.4
1505371215.0,286047002.6,Y,0.0
1505371216.0,286047002.6,P,1.1
1505371235.8,286047002.8,N,1.1
1505371255.6,286047002.5,N,1.0
1505371275.5,286047002.7,N,0.9
1505371295.3,286047002.3,N,0.8
1505371315.1,286047002.4,N,0.8
1505371335.9,286047002.2,N,0.7
1505371355.7,286047000.1,N,1.0
1505371375.6,286046999.7,N,1.1
1505371395.4,286047000.1,N,1.2
1505371415.2,286046999.8,N,1.2
1505371435.1,286046999.9,N,1.3
1505371436.0,286046999.9,N,1.3
1505371455.8,286046999.9,N,1.3
1505371475.7,286047000.2,N,1.3
1505371495.5,286047001.0,N,1.2
1505371515.3,286047000.4,N,1.2
1505371535.2,286046999.9,N,1.2
1505371555.0,286047000.7,N,1.2
1505371555.9,286047000.7,N,1.1
1505371575.8,286047000.5,N,1.1
1505371595.6,286046998.1,N,1.2
1505371615.4,286047000.4,N,1.2
1505371635.3,286047000.6,N,1.2
1505371655.1,286046999.9,N,1.2
1505371675.9,286047000.7,N,1.2
1505371695.7,286047001.2,N,1.1
1505371715.5,286046998.2,N,1.2
1505371735.4,286047000.6,N,1.2
1505371755.2,286047001.0,N,1.2
1505371775.0,286047002.8,N,1.2
1505371775.9,286047002.8,N,1.2
1505371795.8,286047000.0,N,1.2
1505371815.6,286046999.8,N,1.1
1505371835.5,286046999.9,N,1.1
1505371855.3,286047000.8,N,1.0
1505371875.1,286047001.1,N,0.9
1505371895.9,286046998.1,N,1.0
1505371915.7,286047001.0,N,1.0
1505371935.5,286046999.9,N,1.0
1505371955.4,286047000.5,N,1.0
1505371975.2,286047000.5,N,1.0
1505371995.1,286046999.8,N,1.0
1505371996.0,286046999.8,N,1.0
1505372015.8,286047000.0,N,1.0
1505372035.6,286047000.1,N,1.0
1505372055.5,286047000.2,N,1.0
1505372075.3,286047000.4,N,1.0
1505372095.2,286047000.7,N,1.0
1505372115.9,286047000.8,N,1.0
1505372135.7,286047001.1,N,1.0
1505372155.6,286046998.7,N,1.0
1505372175.4,286047000.8,N,1.0
1505372195.2,286047001.1,N,1.0
1505372215.1,286046998.6,N,1.1
1505372216.0,286046998.6,N,1.1
1505372235.8,286047001.2,N,1.1
1505372255.7,286046999.6,N,1.0
1505372275.5,286046999.5,N,1.0
1505372295.3,286046998.4,N,1.1
1505372315.2,286046998.8,N,1.0
1505372335.0,286046998.8,N,0.9
1505372335.9,286046998.8,N,0.9
1505372355.8,286047000.7,N,0.9
1505372375.6,286047000.1,N,0.9
1505372395.4,286047002.7,N,1.0
